Location: Saluda
(35.2377°N, 82.3468°W)
Time: 14:52:20
(UTC+00:00)

A-11 Canister half - All Passes

Search period start: 26 September 2022 00:00
Search period end: 06 October 2022 00:00
Orbit: 1515 x 1684 km, 47.2° (Epoch: 25 September)

Date Brightness Start Highest point End Pass type
(mag) Time Alt. Az. Time Alt. Az. Time Alt. Az.
26 Sep - 02:06:05 10° SSW 02:14:59 42° SE 02:23:36 10° ENE visible
26 Sep - 04:10:00 10° WSW 04:19:34 70° NNW 04:28:53 10° NE visible
26 Sep - 06:17:04 10° WNW 06:25:47 40° N 06:34:23 10° ENE visible
26 Sep - 08:23:33 10° NW 08:32:30 49° NNE 08:41:24 10° E visible
26 Sep - 10:28:39 10° WNW 10:37:51 74° SW 10:47:09 10° SE visible
26 Sep - 12:35:37 10° W 12:41:37 19° SW 12:47:43 10° SSW daylight
27 Sep - 01:43:20 10° SSW 01:52:06 39° SE 02:00:36 10° ENE visible
27 Sep - 03:46:59 10° WSW 03:56:37 73° NNW 04:05:59 10° NE visible
27 Sep - 05:53:59 10° WNW 06:02:46 41° N 06:11:23 10° ENE visible
27 Sep - 08:00:35 10° NW 08:09:30 47° NNE 08:18:21 10° E visible
27 Sep - 10:05:43 10° WNW 10:14:58 79° SW 10:24:16 10° SE visible
27 Sep - 12:12:24 10° W 12:18:47 21° SW 12:25:16 10° S daylight
28 Sep - 01:20:37 10° SSW 01:29:14 36° SE 01:37:35 10° ENE visible
28 Sep - 03:23:58 10° WSW 03:33:40 77° NNW 03:43:04 10° NE visible
28 Sep - 05:30:54 10° WNW 05:39:44 41° N 05:48:24 10° ENE visible
28 Sep - 07:37:36 10° NW 07:46:30 46° NNE 07:55:18 10° E visible
28 Sep - 09:42:47 10° WNW 09:52:04 83° SW 10:01:22 10° SE visible
28 Sep - 11:49:13 10° W 11:55:57 23° SW 12:02:47 10° S daylight
29 Sep - 00:57:55 10° S 01:06:22 34° SE 01:14:33 10° ENE visible
29 Sep - 03:00:59 10° WSW 03:10:44 80° NNW 03:20:09 10° NE visible
29 Sep - 05:07:49 10° W 05:16:43 42° N 05:25:25 10° ENE visible
29 Sep - 07:14:38 10° WNW 07:23:30 45° NNE 07:32:15 10° E visible
29 Sep - 09:19:51 10° NW 09:29:09 87° SW 09:38:28 10° SE visible
29 Sep - 11:26:04 10° WNW 11:33:07 25° SW 11:40:15 10° S daylight
30 Sep - 00:35:14 10° S 00:43:29 32° SE 00:51:30 10° ENE visible
30 Sep - 02:38:00 10° WSW 02:47:46 84° NW 02:57:14 10° NE visible
30 Sep - 04:44:44 10° W 04:53:42 43° NNW 05:02:27 10° ENE visible
30 Sep - 06:51:38 10° WNW 07:00:30 44° NNE 07:09:13 10° E visible
30 Sep - 08:56:55 10° NW 09:06:14 89° NE 09:15:33 10° SE visible
30 Sep - 11:02:57 10° WNW 11:10:17 27° SW 11:17:41 10° S daylight
01 Oct - 00:12:35 10° S 00:20:37 29° SE 00:28:26 10° ENE visible
01 Oct - 02:15:02 10° SW 02:24:50 88° NW 02:34:19 10° NE visible
01 Oct - 04:21:39 10° W 04:30:40 44° NNW 04:39:29 10° ENE visible
01 Oct - 06:28:38 10° WNW 06:37:29 43° NNE 06:46:10 10° E visible
01 Oct - 08:33:58 10° NW 08:43:19 85° NE 08:52:37 10° SE visible
01 Oct - 10:39:52 10° WNW 10:47:26 30° SW 10:55:05 10° S visible
01 Oct - 23:49:58 10° S 23:57:45 27° SE 00:05:20 10° ENE visible
02 Oct - 01:52:03 10° SW 02:01:54 88° SE 02:11:24 10° NE visible
02 Oct - 03:58:32 10° W 04:07:39 45° NNW 04:16:32 10° ENE visible
02 Oct - 06:05:38 10° WNW 06:14:28 42° N 06:23:07 10° E visible
02 Oct - 08:11:03 10° NW 08:20:24 81° NE 08:29:40 10° ESE visible
02 Oct - 10:16:47 10° WNW 10:24:36 32° SW 10:32:28 10° S visible
02 Oct - 23:27:23 10° S 23:34:54 25° SE 23:42:12 10° ENE visible
03 Oct - 01:29:06 10° SW 01:38:58 84° SE 01:48:29 10° NE visible
03 Oct - 03:35:27 10° W 03:44:38 46° NNW 03:53:34 10° NE visible
03 Oct - 05:42:36 10° WNW 05:51:26 42° N 06:00:04 10° ENE visible
03 Oct - 07:48:06 10° NW 07:57:28 77° NNE 08:06:44 10° ESE visible
03 Oct - 09:53:44 10° WNW 10:01:45 35° SW 10:09:49 10° S visible
03 Oct - 23:04:50 10° S 23:12:01 23° SE 23:19:03 10° E daylight
04 Oct - 01:06:10 10° SW 01:16:03 80° SE 01:25:34 10° ENE visible
04 Oct - 03:12:21 10° W 03:21:37 48° NNW 03:30:37 10° NE visible
04 Oct - 05:19:35 10° WNW 05:28:25 41° N 05:37:02 10° ENE visible
04 Oct - 07:25:10 10° NW 07:34:32 74° NNE 07:43:47 10° ESE visible
04 Oct - 09:30:42 10° WNW 09:38:54 37° SW 09:47:08 10° SSE visible
04 Oct - 22:42:20 10° S 22:49:10 21° SE 22:55:52 10° E daylight
05 Oct - 00:43:14 10° SW 00:53:06 76° SE 01:02:38 10° ENE visible
05 Oct - 02:49:16 10° W 02:58:37 49° NNW 03:07:41 10° NE visible
05 Oct - 04:56:33 10° WNW 05:05:23 41° N 05:14:00 10° ENE visible
05 Oct - 07:02:14 10° NW 07:11:35 71° NNE 07:20:48 10° ESE visible
05 Oct - 09:07:40 10° WNW 09:16:03 40° SW 09:24:26 10° SSE visible
05 Oct - 22:19:53 10° SSE 22:26:19 19° SE 22:32:36 10° E daylight
